Location: Wien
(48.2082°N, 16.3738°E)
Time: 05:09:28
(UTC+01:00)

DOVE 4 - Visible Passes

Search period start: 23 March 2019 00:00
Search period end: 02 April 2019 01:00
Orbit: 588 x 803 km, 97.7° (Epoch: 22 March)

Date Brightness Start Highest point End Pass type
(mag) Time Alt. Az. Time Alt. Az. Time Alt. Az.
23 Mar ? 02:56:17 10° NNE 03:00:19 49° E 03:00:19 49° E visible
23 Mar ? 04:34:44 10° NNW 04:37:52 19° WNW 04:39:04 17° W visible
24 Mar ? 02:00:46 10° NE 02:02:48 14° E 02:02:48 14° E visible
24 Mar ? 03:36:56 10° N 03:41:16 63° WNW 03:41:33 61° W visible
25 Mar ? 02:40:11 10° NNE 02:44:02 34° E 02:44:02 34° E visible
25 Mar ? 04:18:06 10° N 04:21:42 26° WNW 04:22:46 23° W visible
26 Mar ? 03:20:37 10° NNE 03:24:57 89° ESE 03:25:16 77° S visible
26 Mar ? 05:00:20 10° NW 05:01:54 12° NW 05:03:27 10° WNW visible
27 Mar ? 02:24:13 10° NE 02:27:42 24° E 02:27:45 24° E visible
27 Mar ? 04:01:35 10° N 04:05:30 35° WNW 04:06:29 31° W visible
28 Mar ? 03:04:22 10° NNE 03:08:36 61° E 03:08:59 58° SE visible
28 Mar ? 04:43:13 10° NNW 04:45:48 16° WNW 04:47:44 12° W visible
29 Mar ? 02:08:27 10° NE 02:11:12 17° E 02:11:27 17° E visible
29 Mar ? 03:45:07 10° N 03:49:15 50° WNW 03:50:12 41° WSW visible
30 Mar ? 02:48:11 10° NNE 02:52:12 41° E 02:52:41 40° ESE visible
30 Mar ? 04:26:26 10° NNW 04:29:39 21° WNW 04:31:26 16° W visible
31 Mar ? 01:53:14 10° ENE 01:54:41 11° E 01:55:11 11° E visible
31 Mar ? 04:28:44 10° N 04:32:57 74° WNW 04:33:55 50° SW visible
01 Apr ? 03:32:06 10° NE 03:35:46 29° E 03:36:25 27° ESE visible
01 Apr ? 05:09:48 10° N 05:13:27 29° WNW 05:15:09 21° WSW visible
